GATCU EGPE-EGNT

Flight info

Callsign GATCU
Flight time 1h 11m
Altitude 13000
Route GUSSI DCT PTH DCT SAB DCT ALASO
Aircraft BE58/L-SDFGRY/C

Departure

Time 2026-05-08 17:57
Airport Inverness Airport (EGPE)

Arrival

Time 2026-05-08 19:09
Airport Newcastle International Airport (EGNT)
Time Latitude Longitude Altitude Speed Heading
2026-05-08 17:17 57.54330 -4.06191 27 ft 0 kts 247°
2026-05-08 17:49 57.54332 -4.06245 27 ft 8 kts 295°
2026-05-08 17:50 57.54374 -4.06230 27 ft 5 kts 57°
2026-05-08 17:50 57.54415 -4.06140 27 ft 14 kts 51°
2026-05-08 17:50 57.54462 -4.06008 27 ft 10 kts 84°
2026-05-08 17:50 57.54440 -4.05864 27 ft 13 kts 109°
2026-05-08 17:51 57.54407 -4.05681 27 ft 16 kts 112°
2026-05-08 17:51 57.54364 -4.05471 27 ft 18 kts 109°
2026-05-08 17:51 57.54319 -4.05232 27 ft 20 kts 108°
2026-05-08 17:51 57.54284 -4.05034 27 ft 3 kts 108°
2026-05-08 17:52 57.54283 -4.05033 27 ft 0 kts 108°
2026-05-08 17:52 57.54270 -4.04965 27 ft 13 kts 112°
2026-05-08 17:52 57.54358 -4.04519 27 ft 27 kts 49°
2026-05-08 17:53 57.54492 -4.04230 27 ft 31 kts 49°
2026-05-08 17:53 57.54639 -4.03906 26 ft 33 kts 48°
2026-05-08 17:53 57.54763 -4.03664 26 ft 12 kts 41°
2026-05-08 17:53 57.54769 -4.03616 26 ft 2 kts 202°
2026-05-08 17:54 57.54760 -4.03640 26 ft 1 kts 232°
2026-05-08 17:54 57.54760 -4.03641 26 ft 0 kts 232°
2026-05-08 17:56 57.54719 -4.03731 26 ft 45 kts 230°
2026-05-08 17:57 57.54343 -4.04526 86 ft 102 kts 228°
2026-05-08 17:57 57.53811 -4.05628 265 ft 125 kts 229°
2026-05-08 17:57 57.53173 -4.06755 713 ft 128 kts 214°
2026-05-08 17:57 57.52298 -4.07171 1111 ft 137 kts 182°
2026-05-08 17:58 57.51349 -4.07102 1548 ft 140 kts 180°
2026-05-08 17:58 57.50366 -4.06988 1988 ft 141 kts 181°
2026-05-08 17:58 57.49392 -4.06998 2436 ft 141 kts 189°
2026-05-08 17:58 57.48435 -4.07165 2870 ft 141 kts 190°
2026-05-08 17:59 57.47445 -4.07351 3255 ft 145 kts 190°
2026-05-08 17:59 57.46444 -4.07618 3640 ft 147 kts 197°
2026-05-08 17:59 57.45446 -4.08063 4025 ft 149 kts 198°
2026-05-08 17:59 57.44440 -4.08514 4407 ft 150 kts 198°
2026-05-08 18:00 57.43425 -4.08962 4788 ft 151 kts 198°
2026-05-08 18:00 57.41175 -4.09411 4984 ft 173 kts 189°
2026-05-08 18:00 57.39989 -4.09584 4975 ft 173 kts 190°
2026-05-08 18:01 57.38801 -4.09762 4972 ft 172 kts 190°
2026-05-08 18:01 57.37601 -4.09947 4971 ft 172 kts 190°
2026-05-08 18:01 57.36417 -4.10127 4969 ft 172 kts 190°
2026-05-08 18:01 57.35240 -4.10303 5176 ft 164 kts 190°
2026-05-08 18:02 57.34150 -4.10466 5601 ft 153 kts 191°
2026-05-08 18:02 57.33455 -4.10571 5869 ft 148 kts 192°
2026-05-08 18:02 57.32139 -4.10772 6400 ft 140 kts 192°
2026-05-08 18:02 57.31193 -4.10916 6801 ft 134 kts 193°
2026-05-08 18:03 57.30287 -4.11054 7203 ft 128 kts 193°
2026-05-08 18:03 57.29431 -4.11185 7604 ft 122 kts 193°
2026-05-08 18:03 57.28606 -4.11311 8011 ft 116 kts 194°
2026-05-08 18:03 57.27821 -4.11431 8418 ft 111 kts 194°
2026-05-08 18:04 57.27085 -4.11544 8818 ft 106 kts 194°
2026-05-08 18:04 57.26361 -4.11658 9174 ft 105 kts 195°
2026-05-08 18:04 57.25616 -4.11778 9452 ft 110 kts 194°
2026-05-08 18:04 57.24845 -4.11898 9731 ft 113 kts 194°
2026-05-08 18:05 57.24072 -4.12016 10006 ft 114 kts 194°
2026-05-08 18:05 57.23272 -4.12138 10265 ft 116 kts 194°
2026-05-08 18:05 57.22456 -4.12262 10520 ft 118 kts 194°
2026-05-08 18:05 57.21629 -4.12372 10769 ft 122 kts 187°
2026-05-08 18:06 57.20793 -4.11866 11016 ft 133 kts 165°
2026-05-08 18:06 57.19953 -4.11062 11272 ft 135 kts 163°
2026-05-08 18:06 57.19123 -4.10242 11524 ft 137 kts 163°
2026-05-08 18:06 57.18272 -4.09393 11780 ft 139 kts 163°
2026-05-08 18:07 57.17427 -4.08549 12008 ft 142 kts 163°
2026-05-08 18:07 57.16524 -4.07651 12165 ft 151 kts 162°
2026-05-08 18:07 57.15579 -4.06705 12321 ft 158 kts 162°
2026-05-08 18:07 57.14604 -4.05729 12474 ft 164 kts 162°
2026-05-08 18:08 57.13588 -4.04709 12627 ft 168 kts 161°
2026-05-08 18:08 57.12557 -4.03678 12774 ft 172 kts 161°
2026-05-08 18:08 57.11483 -4.02607 12857 ft 178 kts 161°
2026-05-08 18:08 57.10374 -4.01499 12903 ft 184 kts 160°
2026-05-08 18:09 57.09242 -4.00371 12896 ft 190 kts 160°
2026-05-08 18:09 57.08064 -3.99194 12895 ft 193 kts 160°
2026-05-08 18:09 57.06875 -3.98009 12893 ft 195 kts 160°
2026-05-08 18:09 57.05680 -3.96822 12892 ft 196 kts 160°
2026-05-08 18:10 57.04483 -3.95634 12891 ft 197 kts 160°
2026-05-08 18:10 57.03266 -3.94428 12889 ft 198 kts 160°
2026-05-08 18:10 57.02060 -3.93232 12888 ft 198 kts 160°
2026-05-08 18:10 57.00840 -3.92023 12886 ft 199 kts 160°
2026-05-08 18:11 56.99632 -3.90826 12885 ft 199 kts 160°
2026-05-08 18:11 56.98407 -3.89614 12885 ft 199 kts 160°
2026-05-08 18:11 56.97200 -3.88420 12886 ft 199 kts 160°
2026-05-08 18:11 56.95983 -3.87216 12886 ft 199 kts 160°
2026-05-08 18:12 56.94759 -3.86007 12886 ft 199 kts 160°
2026-05-08 18:12 56.93542 -3.84806 12887 ft 199 kts 160°
2026-05-08 18:12 56.92334 -3.83614 12887 ft 199 kts 160°
2026-05-08 18:12 56.91111 -3.82409 12887 ft 199 kts 160°
2026-05-08 18:13 56.89903 -3.81219 12888 ft 199 kts 160°
2026-05-08 18:13 56.88684 -3.80019 12893 ft 199 kts 160°
2026-05-08 18:13 56.87451 -3.78806 12894 ft 199 kts 160°
2026-05-08 18:13 56.86243 -3.77620 12894 ft 199 kts 160°
2026-05-08 18:14 56.85013 -3.76412 12895 ft 200 kts 160°
2026-05-08 18:14 56.83788 -3.75210 12895 ft 200 kts 160°
2026-05-08 18:14 56.82571 -3.74016 12897 ft 200 kts 160°
2026-05-08 18:14 56.81345 -3.72815 12899 ft 200 kts 160°
2026-05-08 18:15 56.80125 -3.71621 12900 ft 200 kts 160°
2026-05-08 18:15 56.78901 -3.70424 12902 ft 200 kts 160°
2026-05-08 18:15 56.77694 -3.69243 12903 ft 200 kts 160°
2026-05-08 18:15 56.76472 -3.68051 12905 ft 200 kts 160°
2026-05-08 18:16 56.75234 -3.66842 12906 ft 200 kts 160°
2026-05-08 18:16 56.74021 -3.65658 12907 ft 200 kts 160°
2026-05-08 18:16 56.72796 -3.64465 12908 ft 200 kts 160°
2026-05-08 18:16 56.71563 -3.63264 12909 ft 200 kts 160°
2026-05-08 18:17 56.70340 -3.62073 12910 ft 200 kts 160°
2026-05-08 18:17 56.69113 -3.60879 12911 ft 200 kts 160°
2026-05-08 18:17 56.67895 -3.59696 12912 ft 199 kts 160°
2026-05-08 18:17 56.66668 -3.58505 12913 ft 199 kts 160°
2026-05-08 18:18 56.65459 -3.57332 12915 ft 200 kts 160°
2026-05-08 18:18 56.64233 -3.56143 12917 ft 200 kts 160°
2026-05-08 18:18 56.63010 -3.54958 12918 ft 200 kts 160°
2026-05-08 18:18 56.61784 -3.53772 12919 ft 200 kts 160°
2026-05-08 18:19 56.60553 -3.52580 12921 ft 200 kts 160°
2026-05-08 18:19 56.59329 -3.51397 12923 ft 200 kts 160°
2026-05-08 18:19 56.58115 -3.50224 12925 ft 200 kts 160°
2026-05-08 18:19 56.56888 -3.49040 12926 ft 200 kts 160°
2026-05-08 18:20 56.55661 -3.47856 12927 ft 200 kts 160°
2026-05-08 18:20 56.54438 -3.46677 12927 ft 200 kts 160°
2026-05-08 18:20 56.53206 -3.45491 12928 ft 200 kts 160°
2026-05-08 18:20 56.51989 -3.44319 12928 ft 200 kts 160°
2026-05-08 18:21 56.50761 -3.43139 12929 ft 200 kts 160°
2026-05-08 18:21 56.49524 -3.41949 12929 ft 200 kts 160°
2026-05-08 18:21 56.48297 -3.40771 12928 ft 200 kts 160°
2026-05-08 18:21 56.47078 -3.39602 12927 ft 200 kts 160°
2026-05-08 18:22 56.45848 -3.38422 12926 ft 200 kts 160°
2026-05-08 18:22 56.44633 -3.37251 12924 ft 201 kts 158°
2026-05-08 18:22 56.43586 -3.35463 12924 ft 211 kts 138°
2026-05-08 18:22 56.42669 -3.33428 12921 ft 211 kts 137°
2026-05-08 18:23 56.41742 -3.31353 12920 ft 211 kts 137°
2026-05-08 18:23 56.40821 -3.29299 12919 ft 211 kts 137°
2026-05-08 18:23 56.39905 -3.27264 12919 ft 211 kts 137°
2026-05-08 18:23 56.38974 -3.25198 12918 ft 211 kts 137°
2026-05-08 18:24 56.38059 -3.23169 12919 ft 211 kts 138°
2026-05-08 18:24 56.37133 -3.21119 12919 ft 211 kts 137°
2026-05-08 18:24 56.36203 -3.19063 12919 ft 211 kts 138°
2026-05-08 18:24 56.35284 -3.17035 12920 ft 211 kts 137°
2026-05-08 18:25 56.34358 -3.14991 12921 ft 211 kts 137°
2026-05-08 18:25 56.33430 -3.12945 12921 ft 211 kts 137°
2026-05-08 18:25 56.32496 -3.10886 12921 ft 211 kts 137°
2026-05-08 18:25 56.31570 -3.08846 12922 ft 211 kts 137°
2026-05-08 18:26 56.30653 -3.06830 12923 ft 211 kts 137°
2026-05-08 18:26 56.29723 -3.04786 12922 ft 211 kts 138°
2026-05-08 18:26 56.28789 -3.02736 12923 ft 211 kts 137°
2026-05-08 18:26 56.27863 -3.00704 12923 ft 211 kts 138°
2026-05-08 18:27 56.26934 -2.98668 12924 ft 211 kts 138°
2026-05-08 18:27 56.26315 -2.97311 12924 ft 211 kts 137°
2026-05-08 18:27 56.25085 -2.94619 12924 ft 211 kts 138°
2026-05-08 18:27 56.24147 -2.92571 12925 ft 211 kts 137°
2026-05-08 18:28 56.23225 -2.90554 12926 ft 211 kts 137°
2026-05-08 18:28 56.22298 -2.88531 12927 ft 211 kts 137°
2026-05-08 18:28 56.21365 -2.86496 12927 ft 211 kts 137°
2026-05-08 18:28 56.20431 -2.84460 12928 ft 211 kts 137°
2026-05-08 18:29 56.19508 -2.82450 12928 ft 211 kts 138°
2026-05-08 18:29 56.18570 -2.80411 12929 ft 211 kts 138°
2026-05-08 18:29 56.17642 -2.78393 12929 ft 211 kts 138°
2026-05-08 18:29 56.16716 -2.76382 12930 ft 211 kts 138°
2026-05-08 18:30 56.15779 -2.74349 12930 ft 211 kts 137°
2026-05-08 18:30 56.14841 -2.72314 12930 ft 211 kts 137°
2026-05-08 18:30 56.13914 -2.70307 12931 ft 211 kts 138°
2026-05-08 18:30 56.12976 -2.68275 12931 ft 211 kts 137°
2026-05-08 18:31 56.12053 -2.66280 12932 ft 211 kts 137°
2026-05-08 18:31 56.11109 -2.64241 12932 ft 211 kts 137°
2026-05-08 18:31 56.10185 -2.62246 12932 ft 211 kts 137°
2026-05-08 18:31 56.09241 -2.60209 12933 ft 211 kts 138°
2026-05-08 18:32 56.08316 -2.58213 12932 ft 210 kts 137°
2026-05-08 18:32 56.07400 -2.56230 12929 ft 200 kts 138°
2026-05-08 18:32 56.06538 -2.54365 12928 ft 187 kts 139°
2026-05-08 18:32 56.05736 -2.52631 12929 ft 175 kts 139°
2026-05-08 18:33 56.04979 -2.51006 12842 ft 172 kts 140°
2026-05-08 18:33 56.04212 -2.49372 12667 ft 174 kts 140°
2026-05-08 18:33 56.03426 -2.47692 12487 ft 175 kts 139°
2026-05-08 18:33 56.02654 -2.46041 12311 ft 176 kts 139°
2026-05-08 18:34 56.01866 -2.44352 12132 ft 177 kts 139°
2026-05-08 18:34 56.01078 -2.42665 11953 ft 177 kts 139°
2026-05-08 18:34 56.00294 -2.40990 11775 ft 177 kts 139°
2026-05-08 18:34 55.99505 -2.39300 11596 ft 177 kts 139°
2026-05-08 18:35 55.98713 -2.37608 11416 ft 177 kts 139°
2026-05-08 18:35 55.97928 -2.35930 11237 ft 177 kts 138°
2026-05-08 18:35 55.97163 -2.34297 11061 ft 177 kts 139°
2026-05-08 18:35 55.96369 -2.32605 10875 ft 176 kts 139°
2026-05-08 18:36 55.95586 -2.30938 10691 ft 176 kts 139°
2026-05-08 18:36 55.94799 -2.29259 10507 ft 176 kts 139°
2026-05-08 18:36 55.94016 -2.27594 10323 ft 176 kts 139°
2026-05-08 18:36 55.93233 -2.25929 10139 ft 176 kts 139°
2026-05-08 18:37 55.92444 -2.24252 9955 ft 176 kts 139°
2026-05-08 18:37 55.91656 -2.22578 9770 ft 176 kts 139°
2026-05-08 18:37 55.90872 -2.20931 9586 ft 174 kts 142°
2026-05-08 18:37 55.89963 -2.19525 9404 ft 170 kts 150°
2026-05-08 18:38 55.89031 -2.18209 9226 ft 170 kts 151°
2026-05-08 18:38 55.88098 -2.16895 9048 ft 170 kts 150°
2026-05-08 18:38 55.87176 -2.15596 8872 ft 171 kts 150°
2026-05-08 18:38 55.86232 -2.14265 8692 ft 171 kts 150°
2026-05-08 18:39 55.85291 -2.12940 8513 ft 171 kts 150°
2026-05-08 18:39 55.84362 -2.11630 8336 ft 172 kts 150°
2026-05-08 18:39 55.83421 -2.10304 8158 ft 172 kts 150°
2026-05-08 18:39 55.82491 -2.08996 7982 ft 172 kts 150°
2026-05-08 18:40 55.81547 -2.07667 7803 ft 172 kts 150°
2026-05-08 18:40 55.80606 -2.06343 7625 ft 172 kts 150°
2026-05-08 18:40 55.79675 -2.05035 7448 ft 172 kts 150°
2026-05-08 18:40 55.78735 -2.03714 7270 ft 172 kts 150°
2026-05-08 18:41 55.77795 -2.02396 7092 ft 172 kts 150°
2026-05-08 18:41 55.76869 -2.01097 6916 ft 172 kts 150°
2026-05-08 18:41 55.75928 -1.99778 6737 ft 172 kts 150°
2026-05-08 18:41 55.74994 -1.98469 6560 ft 171 kts 150°
2026-05-08 18:42 55.74062 -1.97165 6382 ft 171 kts 150°
2026-05-08 18:42 55.73127 -1.95857 6204 ft 171 kts 149°
2026-05-08 18:42 55.72190 -1.94547 6025 ft 171 kts 149°
2026-05-08 18:42 55.71263 -1.93251 5848 ft 170 kts 149°
2026-05-08 18:43 55.70340 -1.91962 5671 ft 170 kts 149°
2026-05-08 18:43 55.69410 -1.90664 5492 ft 170 kts 149°
2026-05-08 18:43 55.68496 -1.89388 5316 ft 169 kts 149°
2026-05-08 18:43 55.67569 -1.88097 5137 ft 169 kts 149°
2026-05-08 18:44 55.66653 -1.86821 4973 ft 168 kts 149°
2026-05-08 18:44 55.65742 -1.85550 4866 ft 164 kts 149°
2026-05-08 18:44 55.64863 -1.84326 4800 ft 158 kts 149°
2026-05-08 18:44 55.64030 -1.83163 4808 ft 149 kts 150°
2026-05-08 18:45 55.63232 -1.82051 4809 ft 141 kts 150°
2026-05-08 18:45 55.62482 -1.81007 4811 ft 134 kts 150°
2026-05-08 18:45 55.61772 -1.80020 4812 ft 128 kts 150°
2026-05-08 18:45 55.61077 -1.79058 4814 ft 126 kts 151°
2026-05-08 18:46 55.60376 -1.78093 4813 ft 132 kts 150°
2026-05-08 18:46 55.59632 -1.77067 4813 ft 139 kts 150°
2026-05-08 18:46 55.58850 -1.75985 4814 ft 145 kts 150°
2026-05-08 18:46 55.58039 -1.74863 4814 ft 150 kts 149°
2026-05-08 18:47 55.57209 -1.73714 4814 ft 154 kts 149°
2026-05-08 18:47 55.56359 -1.72535 4814 ft 158 kts 149°
2026-05-08 18:47 55.55487 -1.71326 4813 ft 160 kts 149°
2026-05-08 18:47 55.54598 -1.70099 4813 ft 163 kts 149°
2026-05-08 18:48 55.53699 -1.68857 4813 ft 164 kts 149°
2026-05-08 18:48 55.52792 -1.67632 4813 ft 165 kts 149°
2026-05-08 18:48 55.51879 -1.66418 4813 ft 166 kts 150°
2026-05-08 18:48 55.50944 -1.65179 4813 ft 166 kts 150°
2026-05-08 18:49 55.50029 -1.63965 4813 ft 166 kts 150°
2026-05-08 18:49 55.49107 -1.62738 4812 ft 164 kts 149°
2026-05-08 18:49 55.48201 -1.61533 4813 ft 162 kts 150°
2026-05-08 18:49 55.47303 -1.60334 4814 ft 161 kts 150°
2026-05-08 18:50 55.46417 -1.59147 4814 ft 159 kts 150°
2026-05-08 18:50 55.45548 -1.57981 4814 ft 158 kts 150°
2026-05-08 18:50 55.44674 -1.56810 4815 ft 157 kts 150°
2026-05-08 18:50 55.43819 -1.55656 4815 ft 156 kts 149°
2026-05-08 18:51 55.42915 -1.54674 4816 ft 147 kts 173°
2026-05-08 18:51 55.41950 -1.54799 4822 ft 137 kts 203°
2026-05-08 18:51 55.41072 -1.55388 4816 ft 136 kts 206°
2026-05-08 18:51 55.40192 -1.56025 4815 ft 136 kts 207°
2026-05-08 18:52 55.39323 -1.56652 4815 ft 135 kts 206°
2026-05-08 18:52 55.38447 -1.57286 4815 ft 135 kts 207°
2026-05-08 18:52 55.37580 -1.57913 4815 ft 135 kts 207°
2026-05-08 18:52 55.36713 -1.58533 4814 ft 135 kts 205°
2026-05-08 18:53 55.35806 -1.59033 4814 ft 136 kts 201°
2026-05-08 18:53 55.34893 -1.59486 4814 ft 136 kts 201°
2026-05-08 18:53 55.33984 -1.59933 4813 ft 136 kts 201°
2026-05-08 18:53 55.33075 -1.60379 4813 ft 136 kts 201°
2026-05-08 18:54 55.32168 -1.60825 4813 ft 136 kts 201°
2026-05-08 18:54 55.31247 -1.61184 4813 ft 137 kts 196°
2026-05-08 18:54 55.30311 -1.61481 4813 ft 137 kts 195°
2026-05-08 18:54 55.29375 -1.61779 4813 ft 137 kts 195°
2026-05-08 18:55 55.27476 -1.62208 4812 ft 138 kts 193°
2026-05-08 18:55 55.26525 -1.62410 4812 ft 138 kts 192°
2026-05-08 18:55 55.25579 -1.62612 4812 ft 138 kts 193°
2026-05-08 18:56 55.24628 -1.62815 4812 ft 137 kts 193°
2026-05-08 18:56 55.23678 -1.63016 4805 ft 137 kts 193°
2026-05-08 18:56 55.22722 -1.63220 4811 ft 137 kts 193°
2026-05-08 18:56 55.21788 -1.63420 4811 ft 137 kts 192°
2026-05-08 18:57 55.20839 -1.63623 4812 ft 137 kts 193°
2026-05-08 18:57 55.20212 -1.63758 4812 ft 137 kts 193°
2026-05-08 18:57 55.18943 -1.64027 4812 ft 137 kts 193°
2026-05-08 18:57 55.17999 -1.64254 4812 ft 136 kts 196°
2026-05-08 18:58 55.17066 -1.64567 4812 ft 136 kts 197°
2026-05-08 18:58 55.16143 -1.64883 4811 ft 137 kts 194°
2026-05-08 18:58 55.15206 -1.64453 4810 ft 150 kts 149°
2026-05-08 18:58 55.14654 -1.62825 4812 ft 162 kts 104°
2026-05-08 18:59 55.14836 -1.60741 4816 ft 167 kts 72°
2026-05-08 18:59 55.15270 -1.58686 4814 ft 167 kts 71°
2026-05-08 18:59 55.15709 -1.56642 4814 ft 168 kts 71°
2026-05-08 18:59 55.16157 -1.54547 4635 ft 175 kts 71°
2026-05-08 19:00 55.16610 -1.52430 4452 ft 180 kts 71°
2026-05-08 19:00 55.17068 -1.50280 4269 ft 183 kts 71°
2026-05-08 19:00 55.17421 -1.48119 4121 ft 180 kts 92°
2026-05-08 19:00 55.17001 -1.46132 3974 ft 167 kts 138°
2026-05-08 19:01 55.16089 -1.44931 3830 ft 162 kts 153°
2026-05-08 19:01 55.15158 -1.43901 3803 ft 155 kts 154°
2026-05-08 19:01 55.14273 -1.42912 3790 ft 147 kts 154°
2026-05-08 19:01 55.13420 -1.41954 3582 ft 147 kts 154°
2026-05-08 19:02 55.12541 -1.41091 3377 ft 142 kts 171°
2026-05-08 19:02 55.11620 -1.41276 3186 ft 132 kts 206°
2026-05-08 19:02 55.10769 -1.41890 2975 ft 134 kts 196°
2026-05-08 19:02 55.09873 -1.42214 2743 ft 133 kts 219°
2026-05-08 19:03 55.09518 -1.43692 2443 ft 138 kts 268°
2026-05-08 19:03 55.09690 -1.45276 2375 ft 132 kts 281°
2026-05-08 19:03 55.09964 -1.46881 2126 ft 135 kts 284°
2026-05-08 19:03 55.10085 -1.48361 2102 ft 122 kts 264°
2026-05-08 19:04 55.09804 -1.49796 1771 ft 132 kts 239°
2026-05-08 19:04 55.09246 -1.50933 1725 ft 111 kts 222°
2026-05-08 19:04 55.08722 -1.51711 1748 ft 87 kts 233°
2026-05-08 19:04 55.08413 -1.52605 1684 ft 90 kts 243°
2026-05-08 19:05 55.08138 -1.53592 1718 ft 89 kts 245°
2026-05-08 19:05 55.07882 -1.54581 1732 ft 91 kts 240°
2026-05-08 19:05 55.07508 -1.55494 1730 ft 92 kts 237°
2026-05-08 19:05 55.07165 -1.56484 1642 ft 100 kts 242°
2026-05-08 19:06 55.06838 -1.57588 1516 ft 107 kts 244°
2026-05-08 19:06 55.06509 -1.58779 1374 ft 112 kts 244°
2026-05-08 19:06 55.06175 -1.60021 1222 ft 113 kts 244°
2026-05-08 19:06 55.05855 -1.61225 1071 ft 104 kts 245°
2026-05-08 19:07 55.05567 -1.62318 937 ft 94 kts 245°
2026-05-08 19:07 55.05299 -1.63329 811 ft 89 kts 245°
2026-05-08 19:07 55.05053 -1.64259 693 ft 80 kts 245°
2026-05-08 19:07 55.04827 -1.65107 594 ft 80 kts 244°
2026-05-08 19:08 55.04567 -1.66076 472 ft 95 kts 244°
2026-05-08 19:08 55.04279 -1.67149 322 ft 97 kts 245°
2026-05-08 19:08 55.04024 -1.68117 232 ft 78 kts 245°
2026-05-08 19:08 55.03818 -1.68871 240 ft 58 kts 243°
2026-05-08 19:09 55.03671 -1.69413 246 ft 41 kts 243°
2026-05-08 19:09 55.03580 -1.69763 251 ft 14 kts 240°
2026-05-08 19:09 55.03520 -1.69818 252 ft 5 kts 198°
2026-05-08 19:09 55.03480 -1.69834 253 ft 5 kts 188°
2026-05-08 19:10 55.03458 -1.69843 253 ft 4 kts 205°
2026-05-08 19:10 55.03422 -1.69874 254 ft 5 kts 201°
2026-05-08 19:10 55.03393 -1.69870 254 ft 5 kts 130°
2026-05-08 19:10 55.03390 -1.69858 254 ft 0 kts 105°